Погода в Атабаево

Россия / Республика Татарстан     55°17′17″N   49°21′18″E
темп.,
°C
ветер,
м/с
пор.,
м/с
влажн.,
%
обл.,
%
осадки,
мм/ч
давл.,
гПа
погр.,
м
26 июля, пн
пн2600:00+15зсз225550 0.0 102147
03:00+16з235465 0.0 102283
06:00+16зсз356446 0.0 1022172
09:00+20з345012 0.0 1022825
12:00+21з554626 0.0 10221106
15:00+21з3553100 0.0 1021170
18:00+20зюз575765 0.0 1020214
21:00+19з475870 0.0 1020170
27 июля, вт
вт2700:00+18з4756100 0.0 1020178
03:00+16з5106491 0.0 1019208
06:00+17зсз5106365 0.0 1019239
09:00+21зсз685799 0.0 1018457
12:00+20зсз466147 0.0 1017196
15:00+21сз710641 0.2 1016464
18:00+20зсз356458 0.0 1016120
21:00+18зсз346196 0.0 101684
28 июля, ср
ср2800:00+15ссз45632 0.0 101794
03:00+13ссз45740 0.0 1018117
06:00+14ссз237216 0.0 1019176
09:00+19сз235117 0.0 1018768
12:00+21сз14425 0.0 1017950
15:00+22зсз354895 0.0 1016858
18:00+22юз23595 0.0 1015115
21:00+18юз5107913 0.4 1014233
29 июля, чт
чт2900:00+16юз4984100 0.1 1013199
03:00+16юз4990100 0.3 1011225
06:00+18юз51185100 0.5 1010329
09:00+18зюз3689100 2.3 1009222
12:00+17ю81494100 4.6 1007743
15:00+18юз91492100 7.7 1005701
18:00+20юз488883 0.4 1004416
21:00+19зюз489471 1.7 1003201
30 июля, пт
пт3000:00+19з6128987 0.1 1003403
03:00+17з6119573 0.1 1004352
06:00+18зсз589584 0.1 1005378
09:00+21зсз5681100 0.1 1006601
12:00+24зсз4664100 0.0 1007549
15:00+26з685848 0.0 1006757
18:00+25з476439 0.0 1006150
21:00+19зсз3487100 1.8 100751